RH
16 15 14 14 12 10 11 9 10 10 11 12 11 14 16 16 22 19 10 11 10 18 37 45 56 65 55 49 54 57 56 50 46 49 45 42 43 45 50 47 39 38 40 42 42 36 38 44 42 44 50 54 65 75 69 61 58 49 47 51 45 46 57 56 54 57 57 54 47 43 44 41 40 48 54 60 69 69 70 82 81 71 72 72 77 83 59
16 15 14 13 11 11 11 9 11 11 11 12 11 12 13 11 15 15 10 11 11 18 35 43 54 65 58 47 44 48 54 48 47 55 51 41 41 47 53 44 30 38 48 47 42 35 32 35 39 45 50 55 68 75 68 64 62 53 53 52 41 42 52 51 53 56 57 66 67 57 51 41 37 53 62 62 71 74 72 76 71 66 70 68 77 84 55
15 15 14 13 12 11 11 10 13 12 10 12 11 11 14 16 17 17 14 13 10 18 39 49 61 74 61 42 40 43 43 42 46 52 49 41 37 40 45 41 37 48 51 45 46 45 35 31 37 41 45 56 70 68 61 67 67 58 60 55 39 44 54 48 45 47 48 56 60 58 63 56 46 53 57 59 68 65 57 64 68 68 69 67 74 74 44
15 14 13 13 12 11 12 12 12 11 9 11 11 12 14 13 16 21 21 18 12 19 33 35 49 73 60 34 39 45 37 37 45 48 43 36 35 39 41 39 41 47 45 42 48 51 45 39 39 40 43 58 75 70 59 66 68 58 54 49 49 61 63 50 49 52 46 41 42 49 58 54 46 50 54 57 63 60 62 74 75 72 78 73 62 56 43
14 14 13 13 12 11 12 12 11 10 9 10 10 13 15 14 21 28 21 15 18 25 30 25 31 48 40 24 33 43 42 40 40 43 45 41 38 38 38 38 38 39 42 45 50 56 54 46 43 44 49 59 70 71 67 68 66 58 48 46 56 64 57 54 57 54 46 43 43 45 49 47 45 49 56 62 66 64 63 67 64 64 74 67 49 49 54
14 14 13 12 11 11 12 12 11 10 9 10 9 13 19 19 24 28 20 21 29 27 27 33 34 34 35 33 34 41 48 45 37 38 44 47 45 37 36 44 48 49 47 40 44 54 51 47 48 48 51 58 57 58 69 76 72 63 50 46 56 60 58 63 65 57 52 53 51 49 49 49 49 52 54 57 66 70 61 55 57 59 59 51 43 48 55
13 13 12 11 10 11 12 11 11 10 9 11 9 12 18 18 19 22 20 25 32 29 31 38 35 35 41 40 37 42 49 47 43 43 40 44 49 39 33 43 55 64 59 40 41 51 39 33 44 48 49 53 51 49 59 74 82 70 53 48 50 54 67 75 69 63 57 49 50 55 55 55 55 55 55 53 59 67 62 54 54 54 51 45 40 46 48
12 11 10 10 10 11 12 11 10 10 10 11 10 13 16 17 18 18 15 18 24 31 39 38 30 33 34 27 32 48 55 49 46 43 31 30 43 42 36 47 62 71 66 46 44 54 43 28 36 46 45 46 53 55 53 70 88 76 58 58 48 43 69 84 72 63 59 53 56 58 56 62 60 49 48 51 55 63 64 61 59 58 59 52 47 56 57
10 9 9 9 10 10 10 10 10 10 11 12 12 13 14 17 19 16 16 22 25 29 38 37 33 38 35 25 28 42 53 53 45 39 31 29 41 44 40 51 65 67 63 55 49 50 47 38 37 40 37 35 41 43 41 62 89 84 70 70 57 46 67 82 68 59 59 59 61 56 50 56 58 51 50 53 58 66 67 64 64 62 59 58 59 64 58
9 9 9 9 9 9 9 9 11 12 12 13 13 13 13 15 15 14 18 28 29 27 30 30 28 32 35 31 32 35 41 44 36 28 31 38 44 43 37 43 55 55 54 56 49 42 43 43 40 38 36 35 34 32 35 50 72 83 80 76 69 60 64 68 61 59 64 61 57 54 51 52 54 56 59 55 55 62 61 56 57 56 50 53 59 55 43
8 8 8 8 8 9 9 10 11 12 13 13 13 15 15 14 14 14 16 24 30 27 25 26 27 30 34 36 40 42 43 46 38 24 29 44 46 43 42 41 44 51 57 53 45 43 44 41 40 39 38 39 38 38 41 44 51 65 72 77 82 73 62 62 59 60 73 75 60 50 50 53 52 54 60 54 44 48 51 46 45 48 47 47 49 44 39
7 7 7 7 8 8 8 9 9 9 10 11 12 14 16 16 15 15 13 18 30 35 33 33 32 33 39 40 40 44 48 53 48 33 34 46 44 42 48 42 34 42 51 46 40 40 40 39 44 47 47 49 49 45 47 52 56 58 57 68 85 78 63 63 64 63 74 77 62 50 50 55 52 49 54 51 40 42 46 41 39 43 46 47 47 45 42
6 7 6 6 7 6 7 7 7 8 8 8 10 12 14 15 14 16 17 19 32 40 35 32 33 36 43 44 41 45 50 53 51 44 41 45 42 40 45 43 38 39 40 39 37 36 42 53 58 58 59 61 58 55 62 70 72 68 58 58 73 79 71 66 68 70 68 64 60 52 47 47 42 37 41 43 38 39 41 42 41 38 40 45 46 44 41
8 8 8 8 9 8 8 8 7 8 7 7 9 9 12 14 13 15 19 21 28 33 27 28 35 36 40 44 43 45 48 46 43 41 42 46 45 41 42 44 44 40 37 36 35 35 44 56 60 62 66 62 46 48 72 84 74 67 66 60 59 70 73 63 60 66 66 65 72 65 48 43 43 39 38 37 34 35 41 46 42 33 36 41 40 40 41
8 8 7 7 8 7 8 8 8 9 9 8 9 8 9 11 12 14 19 20 24 27 25 28 31 28 32 40 40 40 45 45 41 41 49 58 55 45 42 43 40 39 38 36 42 50 48 44 46 51 55 50 34 37 66 81 68 57 63 66 56 56 65 59 52 66 74 68 73 76 63 53 52 47 40 35 33 35 40 45 44 37 32 33 37 42 41
6 5 5 5 5 5 6 6 7 8 9 9 9 9 9 10 11 12 16 20 21 22 22 24 26 25 29 38 40 35 40 50 48 42 45 56 59 52 45 40 37 41 39 34 45 59 50 41 47 50 47 46 37 34 47 61 61 56 58 66 63 60 74 73 58 67 77 65 64 76 67 51 47 46 39 34 33 33 38 49 58 51 34 27 37 43 38
6 6 7 6 6 6 5 6 6 6 8 8 8 9 9 10 11 11 13 17 17 18 22 25 28 27 27 37 44 35 33 43 43 34 37 52 61 55 45 41 40 41 38 37 49 57 49 47 54 54 57 56 38 30 40 46 50 55 61 73 78 74 80 81 69 71 79 71 72 80 65 46 45 45 37 34 33 34 45 59 60 46 30 27 34 38 35
8 8 9 7 8 8 6 7 7 6 7 8 8 9 9 10 11 11 13 14 14 18 24 25 27 28 25 29 34 29 29 36 33 35 51 64 63 52 44 43 42 39 41 48 55 55 50 54 57 51 56 58 37 30 43 43 41 56 71 80 84 85 84 79 77 84 85 76 79 81 65 53 55 49 36 32 35 40 51 57 44 29 28 30 31 34 35
10 10 10 9 9 9 8 8 8 7 8 7 7 9 9 10 11 11 13 14 13 18 25 24 26 29 28 27 28 28 32 33 32 42 52 50 48 47 43 41 41 42 46 49 53 53 51 58 63 51 49 59 49 35 38 40 43 60 69 64 65 77 84 81 80 86 86 84 86 82 67 53 46 42 35 32 40 47 46 39 30 26 31 33 32 35 37
11 11 11 10 10 9 8 8 7 7 8 7 7 9 8 9 11 11 13 15 14 16 22 25 27 28 27 28 30 32 33 30 33 44 43 36 40 42 35 36 44 49 47 43 47 53 51 57 63 51 48 62 55 36 39 51 56 56 51 49 54 61 67 79 89 83 77 84 86 73 61 50 36 35 39 38 39 40 32 28 30 31 34 36 36 38 39
13 13 11 10 10 9 8 8 8 7 8 7 7 9 8 9 11 11 12 15 14 16 21 24 26 26 25 28 29 30 32 31 32 35 32 33 39 34 27 34 43 47 45 43 46 46 44 55 61 50 49 56 46 38 48 57 60 55 41 42 58 59 52 63 78 69 60 72 77 57 44 43 35 32 38 36 31 31 29 31 37 36 37 40 41 41 42
13 12 11 10 9 9 8 8 7 7 8 8 8 9 9 9 11 11 13 15 14 15 20 22 23 24 25 27 27 26 27 28 30 30 28 30 34 32 31 35 36 37 36 37 43 42 41 52 52 42 47 53 46 51 57 50 56 66 47 32 46 54 46 46 57 58 52 54 58 45 31 31 32 30 32 31 30 32 34 36 40 41 42 44 44 45 46
12 11 10 9 9 9 8 9 8 8 9 8 8 9 8 9 11 10 12 13 13 15 21 23 23 24 25 25 26 25 23 23 25 26 26 28 30 31 34 33 33 37 35 31 36 40 44 53 46 38 50 56 46 51 56 49 60 70 50 36 42 43 37 36 45 58 53 37 35 36 28 26 30 30 31 33 34 36 39 41 43 45 46 47 47 48 49
11 10 9 9 9 9 9 9 9 9 9 9 9 9 9 10 11 11 12 13 12 16 22 25 23 22 23 23 23 23 23 22 22 22 23 26 28 31 37 36 33 38 39 35 35 35 37 43 39 35 47 50 43 46 50 53 66 66 51 55 62 44 31 34 41 50 50 38 33 33 29 28 32 32 33 37 38 40 43 44 46 48 49 51 52 52 54
10 9 9 8 8 8 9 10 9 9 9 9 9 9 9 10 10 11 13 14 13 15 22 26 23 20 22 23 22 22 22 21 21 22 22 24 26 29 35 36 34 37 39 39 39 37 33 36 41 45 49 44 41 48 48 47 56 56 48 58 62 41 31 40 43 41 41 39 35 31 30 32 34 34 37 40 41 44 46 47 50 52 52 54 55 56 60
10 9 8 8 8 8 8 9 9 9 9 8 8 9 9 9 10 9 10 14 16 17 22 26 24 21 22 23 21 21 22 21 21 22 22 24 27 27 29 31 32 35 37 38 40 40 37 40 49 57 57 48 41 46 49 45 46 48 47 47 43 34 34 42 44 42 45 43 38 35 38 40 36 36 42 43 43 46 48 49 53 55 55 58 59 61 64
10 9 8 8 8 8 8 9 9 9 9 8 9 10 9 9 10 9 9 13 15 16 19 23 22 20 21 22 21 20 21 20 21 22 22 24 26 26 28 30 31 33 35 37 39 41 41 47 54 56 55 50 44 45 49 47 44 50 54 47 35 33 39 45 50 57 58 49 40 40 47 48 43 41 45 45 46 50 52 54 58 59 60 63 65 66 69
10 9 8 8 8 8 8 8 9 10 10 9 9 10 10 11 10 9 10 12 13 13 15 18 19 20 22 22 21 20 20 20 22 23 23 25 26 27 29 31 33 36 38 39 42 45 46 51 56 53 45 42 46 50 51 50 52 57 56 46 35 33 38 43 51 58 54 44 39 42 47 49 47 46 47 49 51 54 56 59 62 63 64 67 70 73 74
11 10 9 8 8 8 8 8 9 9 10 11 10 10 12 12 12 11 11 12 13 13 14 18 22 24 24 23 22 21 21 22 23 24 26 28 29 30 32 33 35 38 41 45 48 51 51 51 52 50 44 41 48 54 55 60 67 62 45 34 33 34 35 39 43 48 47 43 42 45 48 50 50 50 51 53 54 58 62 64 64 66 68 70 72 74 75
12 12 11 9 9 9 8 9 10 9 10 11 11 11 12 13 13 13 11 12 15 14 13 19 25 25 23 24 24 22 22 23 24 26 30 31 31 33 35 37 39 41 45 51 52 50 52 52 48 48 48 44 46 54 58 66 76 65 40 28 32 36 37 40 42 45 47 46 46 51 53 54 54 53 54 56 59 63 66 66 66 67 69 70 73 74 74
13 13 12 11 11 10 9 10 10 10 11 12 11 11 13 13 14 15 13 13 16 15 13 18 25 25 23 23 23 22 24 26 27 29 32 34 36 39 40 40 43 46 50 55 56 54 56 55 50 50 50 43 46 61 67 67 73 65 42 30 34 38 41 44 45 46 48 49 52 57 58 56 57 57 58 60 63 65 67 68 67 69 71 73 74 73 72
14 14 13 12 12 11 10 11 10 10 12 13 12 13 14 13 14 16 15 14 14 14 16 19 23 26 27 27 26 26 27 27 28 31 34 36 39 42 43 42 45 50 54 59 62 61 60 57 53 54 52 46 55 76 81 72 68 58 38 30 37 42 44 47 48 48 52 54 58 61 62 59 59 61 63 65 65 66 68 69 68 68 70 72 72 70 71
16 15 14 14 13 13 13 13 12 12 13 12 13 13 13 13 14 16 16 16 14 14 17 19 23 29 31 27 26 28 29 29 31 32 36 40 41 42 43 44 45 49 55 60 62 59 58 57 55 56 56 54 61 78 83 71 57 44 33 35 43 46 47 50 51 53 56 59 62 65 65 63 62 63 65 67 67 67 70 71 71 72 73 73 73 73 73
15 15 15 15 14 14 14 14 14 14 13 13 14 13 13 14 15 15 17 17 15 15 17 19 28 37 36 31 34 34 29 30 34 35 37 41 41 41 43 46 48 50 55 59 61 57 54 54 55 58 62 60 60 68 70 57 42 36 37 42 46 48 50 53 54 56 60 63 65 65 64 64 66 67 68 69 68 68 70 72 73 76 77 78 79 79 79
16 15 16 15 15 16 15 15 16 16 14 14 14 13 13 15 14 15 18 17 16 18 17 18 32 45 44 44 51 46 32 29 36 38 39 40 41 42 45 46 48 52 53 55 58 57 55 55 57 59 63 65 65 69 65 49 38 38 42 45 47 50 54 55 56 60 65 67 67 66 64 67 72 73 72 72 71 70 71 73 73 76 81 82 81 81 83
18 17 17 16 15 16 15 15 17 16 16 17 16 14 14 15 15 16 18 17 18 21 18 21 37 46 39 38 44 39 32 35 39 38 39 41 41 44 46 45 48 54 55 55 59 58 55 55 58 61 67 67 63 57 49 40 39 42 45 48 52 54 55 58 62 66 69 70 69 68 69 72 75 74 74 75 74 74 76 77 76 78 82 83 82 84 87
19 19 19 17 16 16 16 16 17 17 17 18 18 15 15 16 16 18 17 17 20 21 18 26 41 43 34 32 35 33 36 44 43 39 41 44 43 45 48 51 56 58 59 63 66 60 52 52 59 69 73 64 49 41 38 38 41 45 47 50 55 55 57 62 67 70 72 70 68 67 70 73 74 74 77 80 81 80 81 80 78 79 82 83 85 87 87
16 16 16 17 17 16 16 16 16 17 17 18 18 16 15 16 18 19 18 19 22 22 20 26 33 34 32 34 36 35 39 44 42 40 43 46 46 46 48 51 52 51 56 66 64 51 49 60 70 75 70 52 36 35 40 40 40 43 48 53 56 57 60 64 68 72 75 75 73 72 74 76 76 76 78 81 82 82 80 77 75 77 79 82 85 85 87
10 10 11 14 16 17 17 17 17 17 17 17 17 16 16 18 21 21 20 21 22 22 25 29 31 31 34 37 39 39 39 41 47 53 52 50 49 47 48 50 46 44 56 67 55 38 45 66 74 71 63 50 38 36 39 39 40 44 50 55 57 58 62 65 67 70 74 75 76 76 77 79 81 81 82 84 85 84 80 75 73 74 76 79 81 83 88
5 6 8 11 14 16 17 16 17 18 17 17 17 17 18 21 22 23 27 33 33 28 30 33 33 33 34 38 42 45 42 41 49 55 54 51 48 47 51 52 43 41 57 67 52 38 46 59 64 62 56 49 43 39 37 38 41 45 50 56 58 60 63 66 67 70 72 73 76 78 77 79 82 84 86 88 90 88 84 78 74 73 74 78 80 81 89
5 6 8 11 14 16 17 17 18 18 17 17 19 22 24 24 24 26 35 44 43 36 33 35 36 36 37 39 42 44 44 44 46 48 53 55 50 49 54 52 41 42 56 59 50 49 55 58 62 66 58 46 41 41 38 37 41 46 52 57 60 63 66 67 69 72 76 78 81 83 82 82 85 88 90 91 92 90 85 79 74 73 76 79 78 81 92
7 7 9 13 15 15 16 17 17 18 19 20 24 30 33 33 33 34 37 38 37 35 35 36 37 37 39 42 42 40 43 47 47 48 55 57 48 47 57 59 50 46 49 48 49 57 60 57 61 67 57 43 40 41 38 39 45 51 56 61 64 66 68 70 74 78 81 83 85 85 84 85 89 94 96 95 91 88 84 77 73 74 77 77 76 85 97
8 8 11 15 16 15 17 18 18 21 28 32 30 32 37 41 43 44 42 38 37 37 37 39 40 40 41 42 41 41 46 50 48 48 52 52 47 49 60 64 56 46 44 48 54 56 55 58 63 61 50 43 41 40 40 45 52 57 62 66 68 68 70 76 83 85 84 84 85 85 84 87 94 99 99 95 91 88 82 75 75 79 79 78 83 93 96
9 10 12 15 16 16 18 20 19 21 31 39 39 38 42 49 55 57 53 46 41 39 39 41 43 43 43 41 40 41 46 47 47 48 48 47 50 57 62 62 56 46 43 54 61 56 56 65 67 55 45 43 43 43 49 55 60 64 69 69 69 73 80 88 91 87 82 83 85 84 84 89 96 100 99 94 91 88 81 78 82 85 82 85 93 97 91
10 11 12 17 20 19 19 24 28 28 33 44 52 52 48 50 58 62 55 46 42 41 42 42 42 41 41 41 41 43 44 43 45 48 47 46 52 58 56 54 55 54 54 63 69 66 66 70 63 48 44 46 47 51 60 65 67 71 74 73 75 84 92 94 89 83 81 83 84 84 88 95 99 100 99 94 89 86 83 86 88 87 85 91 98 97 94
13 14 15 21 26 26 26 32 39 39 37 40 47 49 45 44 49 50 45 42 43 44 42 41 42 41 41 41 42 43 42 41 44 49 48 48 52 52 44 41 48 56 61 67 71 70 68 66 57 47 47 52 56 62 67 70 73 78 80 82 89 96 94 86 80 77 78 80 81 84 93 99 100 99 98 92 86 85 87 89 88 86 89 97 101 99 98
15 16 18 23 29 34 36 38 39 39 37 38 40 42 43 43 44 44 43 45 47 45 43 42 43 44 45 45 44 43 43 45 48 49 46 46 51 53 50 48 52 57 63 73 80 76 67 60 52 49 53 61 67 70 73 77 82 87 89 93 96 90 79 73 74 77 77 77 79 87 96 101 100 98 94 88 86 89 90 88 85 87 94 101 102 98 94
16 18 22 27 34 40 42 40 38 40 43 44 43 43 43 44 44 45 47 48 47 45 44 42 42 45 47 47 46 45 44 44 46 46 45 47 52 54 55 59 66 70 73 78 79 71 60 53 53 57 65 71 74 76 82 89 92 93 94 92 82 70 65 71 78 80 78 79 84 92 99 100 97 93 90 89 91 92 88 85 87 94 100 101 97 91 84
16 20 25 31 37 40 39 39 42 45 45 44 45 45 46 47 48 48 50 50 48 46 44 43 45 49 48 46 49 52 51 47 47 50 53 58 62 60 59 67 80 84 78 70 65 60 57 58 63 70 76 79 82 88 95 95 90 85 84 78 67 64 71 80 83 81 82 86 93 99 100 97 93 92 92 93 93 89 87 90 96 100 98 93 88 84 81
20 26 33 38 41 41 39 41 49 53 49 46 47 49 48 48 50 51 50 49 47 46 45 46 48 49 47 48 55 60 56 53 56 59 58 62 67 69 70 76 82 79 68 61 59 60 63 69 77 83 85 88 93 98 95 85 75 72 71 69 69 75 82 85 84 86 90 95 99 100 97 95 94 94 95 96 94 93 95 99 99 95 91 88 87 88 89
27 34 41 45 46 45 42 43 50 54 52 49 50 50 48 47 49 52 52 49 47 47 48 47 49 51 53 56 58 55 49 50 58 63 62 62 66 72 76 76 71 63 60 62 67 72 78 84 89 91 92 94 97 92 79 67 64 68 72 74 80 86 89 89 91 95 98 99 100 98 96 95 96 96 96 97 98 99 98 95 90 89 91 93 92 93 95
33 39 46 49 49 48 47 46 47 50 51 50 48 47 45 45 47 50 52 51 51 49 46 45 49 57 59 56 53 51 51 56 65 74 77 73 66 65 69 70 65 63 70 78 83 88 94 96 93 90 90 91 88 77 65 61 67 75 80 85 90 94 95 96 98 100 100 99 99 97 96 96 98 99 99 100 100 100 98 95 93 94 96 95 95 97 100
Wind_Speed
2 2 3 4 4 4 4 4 5 4 3 4 4 3 2 1 0 2 3 1 4 1 2 3 3 2 1 1 1 2 1 2 2 2 2 2 1 1 1 1 1 2 1 1 3 2 2 3 3 2 3 1 1 4 4 3 3 2 1 1 1 1 2 1 4 5 3 4 3 1 1 1 1 2 2 4 3 4 5 5 3 2 3 2 2 3 9
3 3 4 5 5 4 4 4 4 3 2 3 3 3 2 2 1 2 3 1 4 2 0 1 1 2 1 1 0 1 1 3 3 2 3 2 2 1 1 1 1 1 1 2 2 2 1 2 1 1 2 1 1 4 4 3 3 2 2 2 3 2 1 1 2 6 6 5 5 4 3 0 3 3 2 4 4 6 4 2 2 1 5 6 4 5 10
4 4 4 6 5 4 4 3 2 3 3 3 3 4 4 2 1 1 2 1 4 3 2 4 3 2 1 1 1 2 1 3 4 2 2 3 3 1 1 1 2 1 2 2 0 1 0 1 1 1 1 2 1 3 4 3 3 2 3 3 4 2 2 2 1 2 4 5 4 3 2 1 2 2 3 4 6 8 4 2 3 3 5 6 6 7 11
5 5 6 6 5 4 4 2 2 4 4 3 4 5 4 1 0 1 1 1 2 2 2 3 4 4 3 1 1 2 1 2 3 3 2 3 3 2 1 2 2 1 1 1 1 2 1 1 0 1 2 2 1 2 4 3 2 3 4 3 3 2 1 3 5 6 7 7 6 2 1 1 5 5 5 6 6 7 5 4 3 5 3 3 9 12 14
6 6 7 6 5 4 4 2 3 4 3 3 4 5 4 1 1 1 1 1 0 2 1 2 3 4 5 2 1 4 2 1 1 3 3 3 4 3 0 2 2 2 2 2 2 2 1 1 1 2 3 3 2 1 4 3 2 4 4 2 2 3 2 5 7 10 12 9 8 5 2 5 10 9 6 8 7 7 7 7 7 5 4 6 12 9 10
7 8 7 6 5 4 4 4 4 5 4 4 4 4 3 1 1 2 1 1 1 1 0 2 3 4 3 2 1 3 2 1 2 4 2 1 4 3 1 3 5 5 5 3 1 2 1 1 3 2 1 2 2 1 2 3 3 4 3 2 3 4 3 5 5 8 12 8 8 10 7 7 10 10 9 9 9 11 14 16 11 8 6 13 12 6 9
9 9 7 6 5 5 6 5 5 6 6 6 5 3 2 1 1 2 2 2 2 2 1 2 4 4 2 1 1 3 4 5 4 2 2 1 3 4 2 6 7 6 5 3 3 3 2 2 4 2 2 2 1 0 2 2 3 3 2 1 2 3 3 4 2 5 12 9 8 9 7 6 9 11 11 10 11 14 16 17 12 9 13 18 18 17 17
9 8 6 6 6 6 6 6 6 7 7 7 5 4 3 2 2 2 3 1 1 2 1 3 4 1 1 0 2 3 6 6 4 2 4 2 2 4 5 6 5 5 5 4 4 7 6 3 4 4 4 2 3 3 3 3 3 1 1 0 1 3 3 2 3 3 10 7 4 4 5 6 10 14 13 11 11 11 12 12 8 8 13 18 17 17 17
8 6 6 6 6 6 6 7 7 7 7 6 4 3 4 4 4 3 2 1 1 2 1 3 3 0 1 2 3 2 5 7 4 3 5 5 4 6 7 5 2 3 4 6 7 8 7 5 5 6 5 4 4 4 4 6 5 2 2 1 2 3 2 2 5 3 7 3 5 7 7 7 11 17 15 9 8 7 8 7 6 8 10 11 9 8 10
7 6 6 6 5 6 7 7 7 7 6 5 4 3 4 4 5 5 3 1 1 2 2 3 2 2 3 4 4 3 4 5 6 2 3 4 4 5 7 6 4 3 3 7 8 7 5 4 4 4 5 6 5 5 5 7 7 5 4 1 1 3 1 1 2 2 6 4 5 7 8 9 8 10 7 6 6 6 5 6 8 10 7 4 5 8 10
6 5 5 5 5 6 6 6 7 6 5 6 4 4 4 3 4 5 4 1 2 3 2 1 2 3 2 2 3 3 3 4 7 4 2 3 3 3 5 6 4 2 4 6 4 3 4 4 4 4 5 5 4 3 5 7 6 7 8 3 1 4 4 1 1 1 5 7 7 6 5 5 6 5 5 4 3 6 7 9 10 8 7 6 8 10 13
4 4 4 4 4 5 5 6 6 6 6 6 5 5 6 4 4 5 4 2 2 2 1 3 5 3 2 3 3 2 1 4 6 4 2 2 3 3 4 5 4 2 3 4 2 2 3 4 4 3 2 1 1 1 3 3 2 6 9 6 3 4 3 2 2 1 4 5 6 5 3 6 8 6 2 2 2 5 8 10 13 10 10 11 13 15 17
2 2 3 3 4 5 5 6 6 6 6 7 6 6 7 5 5 5 4 2 3 4 2 3 5 4 3 3 3 1 2 3 3 3 2 2 3 5 5 4 4 3 3 3 1 1 2 3 2 2 2 2 2 1 1 2 3 2 5 3 4 6 4 2 1 2 3 3 2 1 5 9 11 7 2 2 3 3 1 7 12 11 9 10 12 15 18
3 4 4 5 5 6 6 6 7 7 6 6 6 6 7 6 6 7 5 2 3 4 4 3 4 4 5 4 4 3 2 2 2 1 1 1 2 5 5 4 4 5 4 2 0 1 1 2 4 4 4 4 3 2 1 2 4 4 2 1 3 6 4 1 1 2 2 1 2 4 7 11 9 4 2 1 1 1 1 2 9 12 9 10 10 12 16
5 6 6 6 6 6 7 7 7 7 6 6 6 6 6 7 7 7 7 4 2 3 4 3 3 3 4 5 6 3 1 1 2 1 1 2 2 3 4 4 5 6 4 1 1 2 1 1 2 3 4 2 2 2 0 1 3 6 6 3 4 4 3 3 2 1 1 1 4 4 5 6 5 3 4 3 2 3 4 2 7 11 11 12 10 10 14
4 4 4 4 5 4 5 5 5 5 5 5 6 6 6 7 7 8 8 6 1 2 4 4 3 2 3 4 6 5 2 2 2 1 3 2 2 2 3 5 6 6 3 1 2 3 3 1 2 1 2 2 2 2 1 0 1 5 7 6 6 5 3 3 2 2 1 2 1 2 2 6 5 2 4 3 3 3 3 2 6 6 9 13 8 10 18
4 4 4 4 5 4 4 4 4 4 4 4 5 5 6 6 7 8 10 9 4 4 6 5 4 4 3 3 3 5 4 3 3 1 1 1 2 2 4 6 5 4 3 1 2 3 3 1 2 1 4 3 2 1 2 0 1 3 4 4 5 5 4 2 1 3 1 2 2 3 5 7 5 4 6 4 3 0 4 5 7 8 20 26 18 17 26
4 5 5 5 5 5 5 5 4 4 4 4 4 5 5 5 6 7 10 11 7 4 5 6 5 5 4 2 2 4 5 3 2 1 0 0 1 3 5 6 4 2 1 1 2 3 2 1 2 2 4 3 0 0 2 1 1 2 1 2 2 1 0 1 2 3 3 3 4 4 5 7 7 7 5 2 1 2 3 5 12 22 33 37 30 28 33
5 6 6 6 6 6 6 6 5 5 4 4 4 4 4 4 5 5 8 11 8 5 6 7 6 6 5 4 3 4 5 4 2 2 2 2 1 5 5 4 4 2 1 2 2 2 1 2 2 3 1 4 1 1 2 2 2 3 3 1 1 1 1 0 2 2 2 3 3 4 6 6 6 6 3 0 3 5 6 14 27 34 38 39 37 35 36
6 6 7 7 7 7 6 6 6 5 4 4 4 3 4 4 5 5 7 9 7 5 6 7 7 6 5 4 3 3 4 4 3 3 2 0 5 8 5 1 3 3 2 2 0 1 1 3 3 1 2 3 2 1 2 3 2 3 4 3 3 3 2 2 3 3 2 1 0 3 5 4 3 1 0 2 1 11 20 28 35 37 36 37 38 37 37
6 7 7 7 7 6 6 6 6 6 5 6 5 4 4 3 2 3 6 7 6 4 4 5 6 5 4 4 3 3 3 3 4 4 2 2 8 8 2 2 5 5 2 2 2 1 2 3 2 1 1 2 1 1 2 3 5 4 4 3 2 4 4 2 3 3 2 1 2 3 7 9 5 3 6 9 15 26 32 32 33 36 36 35 35 38 40
7 7 7 7 6 6 7 7 7 7 7 7 6 6 5 4 3 2 2 4 5 3 2 2 3 2 2 2 3 2 2 2 3 3 1 3 8 9 2 1 5 5 3 3 2 1 2 2 1 0 1 2 2 2 3 2 4 5 1 1 1 5 5 2 2 4 3 4 8 11 17 23 19 14 19 26 30 32 33 31 32 35 37 36 36 39 42
7 7 7 7 7 7 8 8 8 8 7 7 6 7 7 7 6 5 2 0 1 3 4 3 2 2 1 0 1 1 1 1 2 3 2 2 7 9 7 3 3 4 4 4 4 2 2 3 2 1 2 2 2 1 1 1 3 3 1 2 3 3 2 1 1 3 5 8 12 14 19 27 30 28 28 30 30 30 33 34 34 36 38 39 38 38 42
8 8 8 8 8 8 8 8 9 8 7 7 7 8 9 9 8 7 5 2 2 3 5 5 4 3 2 2 2 1 0 0 1 2 3 2 2 3 5 5 5 5 4 5 6 3 2 2 1 1 2 2 2 1 2 3 3 1 1 4 4 2 3 1 3 3 4 5 9 12 19 29 34 32 30 31 32 34 35 36 37 39 42 42 40 40 41
8 8 8 8 8 9 9 9 9 8 8 8 9 10 10 9 8 7 6 4 2 2 3 3 3 3 2 2 2 2 2 2 2 2 3 3 3 3 4 5 5 6 6 6 6 5 3 2 1 2 2 2 1 2 2 2 2 0 1 3 4 3 4 4 3 3 4 8 14 19 26 30 29 27 30 36 39 41 41 40 40 42 43 44 44 43 41
8 8 8 8 8 9 9 10 9 8 8 9 10 11 10 9 9 8 7 5 3 2 3 3 2 3 2 2 2 1 2 3 3 3 3 3 4 5 6 6 6 7 8 7 7 6 4 2 1 2 2 1 0 1 2 2 2 1 1 4 5 4 5 4 2 4 6 9 15 23 25 23 24 30 37 40 41 42 43 43 43 43 43 44 46 46 44
9 8 8 8 8 9 10 10 8 6 6 7 9 10 10 10 9 8 8 7 3 2 2 3 3 2 2 2 2 2 2 3 3 4 4 4 5 5 6 6 6 7 7 6 6 5 2 1 1 2 3 3 1 0 1 2 1 1 2 5 4 4 5 3 3 5 6 7 16 22 17 13 22 35 40 40 39 39 39 41 43 44 43 42 45 47 48
8 8 8 8 8 9 9 8 6 5 5 6 7 7 8 10 9 8 8 8 5 3 3 6 5 4 3 3 3 3 2 3 4 4 5 6 6 6 6 6 5 5 5 4 3 3 3 2 1 2 2 1 1 1 1 1 1 1 2 4 5 6 7 7 6 6 10 15 24 27 20 18 29 39 39 37 37 37 38 40 41 41 42 42 42 44 47
7 8 8 8 8 8 8 7 6 6 7 8 7 5 4 6 9 9 8 8 6 4 5 7 5 3 3 2 2 3 3 4 5 6 7 8 7 7 7 6 5 5 4 4 3 2 2 3 2 2 1 1 1 2 1 2 1 2 2 7 13 14 15 17 14 12 16 22 28 29 26 29 35 38 35 33 35 37 39 41 40 41 42 42 42 42 43
7 8 8 8 8 7 7 7 7 7 8 8 8 5 2 4 7 9 7 7 6 4 2 3 3 2 2 3 3 3 4 5 7 8 8 8 8 7 7 7 6 5 5 5 4 2 2 3 2 1 3 2 1 1 1 2 1 4 4 13 20 21 21 22 22 20 21 25 29 30 30 32 33 33 31 32 34 37 39 40 41 43 43 42 42 43 42
8 8 8 8 8 7 7 7 7 7 7 8 7 6 3 3 7 8 6 5 6 5 3 3 4 3 2 3 4 4 6 8 9 9 8 8 8 7 6 6 5 5 5 5 3 2 2 2 1 2 2 1 1 2 2 2 1 4 11 20 24 24 23 25 26 24 24 28 33 34 32 28 26 29 34 37 38 38 38 40 42 43 42 42 42 42 42
9 8 8 7 7 7 7 6 6 7 7 7 7 6 4 4 6 8 6 4 5 5 3 2 3 2 1 2 3 4 8 11 10 9 9 9 7 6 5 4 4 4 4 3 2 1 0 0 1 1 1 1 1 2 4 3 2 5 16 25 25 24 25 27 27 25 24 28 33 33 33 32 31 31 35 39 39 39 39 41 43 45 45 45 45 44 44
9 8 8 7 6 7 7 6 6 7 6 6 6 5 5 5 5 7 7 5 4 5 4 2 1 1 1 2 2 4 9 12 11 9 9 8 6 5 5 4 2 2 3 3 2 0 0 1 1 1 1 1 1 3 3 2 4 9 20 25 24 24 27 27 25 24 26 30 30 28 30 36 39 38 38 39 39 39 40 42 44 46 47 48 49 49 49
9 9 8 8 7 7 6 6 7 6 6 5 5 5 6 5 4 6 7 6 4 4 4 4 2 0 1 2 1 2 9 13 11 9 8 6 6 6 5 3 2 1 2 3 1 1 0 1 1 2 2 1 3 3 0 4 7 16 23 24 24 27 29 27 25 26 28 31 32 30 30 33 36 38 39 39 39 41 43 45 46 47 48 49 49 49 50
12 11 10 9 8 7 7 6 7 7 7 6 6 6 5 5 4 5 6 6 5 3 3 5 4 2 2 3 2 4 11 14 10 8 7 5 5 6 4 2 1 2 2 2 1 1 1 1 2 2 0 2 1 1 2 7 13 20 24 25 26 29 30 30 31 32 32 32 33 33 32 32 33 35 38 39 42 45 47 47 48 48 48 48 49 50 50
13 13 12 11 10 9 7 5 6 8 8 7 8 7 6 5 4 3 3 5 6 4 2 3 4 3 1 2 3 7 12 13 9 8 6 4 4 4 3 1 1 1 1 1 1 1 1 2 2 1 1 0 2 1 6 12 16 21 23 24 25 27 28 30 33 34 35 35 34 32 32 34 34 35 37 40 43 45 45 46 48 48 48 49 51 51 50
14 14 13 12 11 9 6 5 7 10 9 9 9 8 6 4 3 2 3 4 6 7 6 5 3 1 1 1 4 9 11 9 8 7 4 3 4 4 1 1 0 0 1 2 1 1 1 1 2 1 1 2 2 5 14 19 20 22 24 25 26 28 29 30 32 33 37 40 40 40 42 42 41 41 41 42 44 45 45 46 48 48 48 49 50 50 51
14 13 13 12 11 8 5 7 11 12 11 10 9 5 3 3 2 2 3 4 4 6 8 7 4 2 2 2 5 10 9 7 6 5 3 3 5 3 0 1 1 0 1 2 0 2 1 1 2 1 2 2 5 11 18 23 24 25 25 26 27 30 32 32 33 34 36 39 41 44 46 46 47 48 48 48 49 50 50 52 53 53 53 52 52 53 53
14 13 12 11 9 7 8 11 13 12 10 8 5 2 2 3 2 1 3 4 3 5 8 8 5 4 4 3 5 8 8 7 5 3 2 3 3 2 1 2 1 1 2 1 1 2 2 1 2 2 1 2 9 17 23 26 28 28 28 28 31 34 35 35 35 35 35 36 39 41 43 43 44 45 45 46 48 50 52 55 57 58 58 58 57 57 56
13 13 11 10 9 9 10 11 10 8 6 4 3 2 2 4 4 2 3 3 3 4 7 7 5 5 6 5 4 5 7 7 4 2 3 2 1 1 2 2 1 2 2 0 0 2 1 1 1 2 0 5 15 24 28 30 32 32 33 34 36 38 38 38 38 38 38 40 42 44 45 45 43 42 41 42 43 45 49 53 56 58 60 59 59 59 56
13 12 11 10 9 8 8 8 8 6 4 3 3 2 2 3 4 4 4 3 2 4 7 8 7 6 8 8 6 5 7 7 4 3 3 2 2 2 1 1 2 2 0 2 2 2 2 1 1 1 1 12 24 30 33 36 38 38 38 39 40 40 41 41 41 41 41 42 44 45 47 47 45 43 40 39 40 43 47 51 54 58 58 57 59 58 52
13 11 9 7 7 7 6 7 7 6 3 3 3 2 1 2 3 4 5 3 2 4 7 8 8 9 11 11 8 6 6 6 4 2 1 2 3 2 0 1 2 2 1 3 2 3 2 2 1 2 9 22 31 34 38 41 43 42 42 42 41 43 44 43 42 42 43 43 44 46 47 48 47 44 40 39 41 45 49 54 57 57 56 57 59 54 47
12 11 8 5 6 6 5 5 7 6 3 3 3 2 2 3 2 1 2 3 3 5 8 9 10 12 11 10 8 7 6 4 3 2 1 2 3 2 2 2 2 0 1 1 2 3 1 0 1 4 17 29 34 37 42 44 45 45 45 44 43 43 43 40 40 42 44 45 45 46 47 48 47 44 41 41 43 48 54 60 59 56 57 58 55 48 47
11 9 6 3 5 6 4 3 6 6 3 2 2 2 2 4 3 1 2 5 6 7 10 13 13 11 9 9 9 6 4 2 2 2 1 3 3 2 2 0 2 2 2 2 2 1 2 2 2 13 26 34 37 41 44 45 45 46 46 46 45 43 40 38 40 43 47 48 48 48 50 50 47 44 43 45 48 53 60 62 59 57 58 56 50 47 51
9 8 5 2 5 8 4 2 4 6 3 1 0 2 2 2 3 3 3 6 9 11 13 15 13 10 10 9 7 3 2 3 2 1 2 3 2 1 0 2 2 2 2 1 1 2 2 3 11 23 33 37 39 41 43 43 43 44 44 46 46 43 40 41 44 47 49 50 50 51 51 49 46 45 48 53 57 60 61 60 58 57 56 53 49 49 49
7 7 5 3 4 7 5 2 2 3 1 1 1 1 1 3 5 5 7 10 13 14 16 15 12 10 9 7 4 2 3 4 2 1 2 3 1 1 2 1 1 3 3 2 3 4 2 6 15 26 33 37 40 41 42 43 42 42 42 44 43 43 44 47 49 49 50 51 52 52 50 47 46 48 54 60 63 63 60 58 57 55 53 49 45 44 44
5 6 6 4 2 4 5 3 1 2 3 3 4 4 4 6 7 7 9 12 14 15 16 14 11 9 7 5 2 2 4 4 2 1 2 1 1 2 2 2 1 1 2 3 4 3 4 11 23 32 36 38 40 42 43 42 40 41 42 42 43 46 50 51 51 50 52 53 53 51 48 47 49 53 58 63 64 62 59 56 55 52 47 42 38 41 49
5 5 5 3 1 2 3 1 4 6 6 6 6 7 7 8 8 9 11 13 14 14 14 12 9 5 4 2 1 2 3 4 3 1 1 1 0 2 3 3 2 1 1 2 4 5 9 20 32 36 37 38 41 41 40 38 39 41 43 44 47 52 54 53 51 52 53 53 52 49 48 49 53 57 60 61 61 59 56 55 53 48 40 36 41 53 64
8 7 6 4 3 3 3 3 6 5 7 8 6 7 9 10 10 11 12 12 12 12 12 9 6 4 3 3 2 1 2 3 1 1 2 3 2 1 1 2 3 3 2 3 7 12 20 30 36 36 37 39 40 39 36 37 41 44 46 48 52 54 53 52 53 54 53 51 49 48 50 52 56 57 58 57 58 58 56 52 46 40 38 45 56 66 69
11 10 9 6 4 4 4 2 3 2 7 8 8 9 12 13 13 13 13 12 12 11 8 6 4 2 2 3 2 2 2 2 1 1 3 3 2 1 2 3 3 3 5 10 17 24 31 34 34 35 37 39 38 36 37 41 44 46 48 51 53 52 51 51 53 53 51 48 47 49 52 54 54 54 54 54 55 54 50 45 41 44 52 62 65 64 62
8 8 9 9 6 4 4 4 2 2 6 8 10 12 14 14 15 15 14 13 12 9 5 4 4 2 2 3 2 1 2 3 2 4 3 2 1 2 2 3 4 8 15 21 26 29 31 32 33 35 38 38 37 39 44 48 48 48 50 51 51 49 49 51 51 50 49 48 49 51 53 53 51 50 51 50 48 47 47 50 54 60 65 66 62 58 56
5 6 7 9 9 7 5 5 3 2 4 7 10 12 13 15 16 15 13 11 9 7 5 4 4 3 2 2 2 2 2 3 4 4 2 1 1 2 3 8 13 18 24 29 30 30 30 31 32 33 33 34 36 41 47 50 52 51 50 49 48 48 49 49 49 48 49 50 50 51 52 51 49 48 48 46 44 46 52 61 66 66 64 62 60 57 53
Wind_Direction
221 269 317 335 341 336 324 316 312 320 340 352 353 340 308 338 1 351 2 207 191 139 39 4 14 61 144 136 140 153 170 162 165 196 203 212 210 199 227 202 191 210 190 152 168 180 199 190 186 220 219 211 191 166 154 164 165 130 128 237 171 127 91 81 278 288 305 307 322 6 20 98 154 232 165 141 155 144 154 180 185 198 213 175 117 249 268
240 278 314 328 329 323 315 309 313 333 335 329 351 0 336 341 331 349 6 248 200 183 179 191 318 298 309 46 93 187 216 195 180 205 220 203 174 162 216 209 203 216 115 109 175 197 203 206 197 192 201 216 183 166 167 180 179 172 191 157 142 194 199 97 324 325 337 342 348 342 332 179 215 244 175 151 120 104 120 143 100 266 218 168 156 247 263
252 284 310 320 319 311 308 307 322 337 311 302 345 358 345 344 321 317 6 277 211 207 200 163 157 189 127 72 215 199 223 216 201 205 215 200 181 167 231 188 156 120 70 71 138 185 200 269 304 61 213 246 204 176 190 201 201 210 199 149 142 190 211 140 137 296 290 294 300 286 271 238 227 215 181 177 139 134 158 128 108 246 226 160 170 239 268
264 289 306 312 306 297 299 303 328 322 306 308 346 350 344 358 254 297 355 340 196 190 199 164 146 154 154 148 222 180 176 239 215 203 211 209 195 181 179 148 110 55 75 105 263 260 348 26 77 179 234 257 268 192 201 211 212 185 165 152 127 106 255 204 191 208 231 248 254 231 109 281 263 241 203 198 183 159 132 109 177 206 171 191 224 237 273
276 292 302 301 291 292 287 266 295 310 316 329 340 342 342 346 211 245 7 349 70 91 136 173 150 161 170 169 185 184 200 310 237 217 226 216 197 188 168 168 164 173 173 172 242 248 1 42 184 204 221 246 302 246 208 206 205 172 160 174 118 86 289 242 207 228 246 256 271 286 315 264 261 255 221 201 192 165 156 195 212 154 118 260 249 219 247
285 290 295 289 279 283 266 249 280 307 321 323 324 334 339 314 233 220 188 239 223 86 17 195 143 139 160 157 149 171 194 228 205 209 216 207 198 190 299 243 208 193 181 160 172 227 299 278 231 214 219 245 0 340 230 203 195 181 170 194 143 121 258 241 195 249 266 265 267 269 264 257 259 255 238 218 195 179 196 221 213 156 193 255 263 240 244
286 285 285 278 269 265 251 250 282 304 312 310 305 302 297 273 232 200 189 230 221 182 251 190 144 131 103 87 177 169 188 223 230 186 122 325 238 193 221 260 233 203 188 149 152 204 217 280 259 204 171 205 156 257 252 205 184 179 158 217 175 146 246 242 173 282 284 273 261 257 250 259 268 259 240 223 210 199 210 230 221 197 232 255 267 275 274
283 280 274 266 257 252 248 262 289 301 305 304 296 281 265 251 255 207 186 216 159 130 152 143 137 122 31 304 227 178 182 217 239 171 162 210 243 177 209 255 234 195 183 160 187 212 188 190 241 191 159 211 204 200 217 168 146 167 157 196 176 167 256 267 103 314 288 286 306 285 241 247 272 274 257 227 219 217 223 239 233 218 245 257 266 279 280
279 270 262 255 248 252 263 279 291 295 298 296 290 278 257 248 261 242 185 154 111 124 147 130 121 321 254 206 224 205 204 210 196 187 205 200 185 187 204 220 172 138 179 195 232 244 205 193 228 198 189 227 219 216 205 156 139 166 193 170 143 173 271 356 60 344 280 292 2 331 301 286 279 280 273 236 204 210 222 230 205 197 231 258 277 283 271
268 260 256 256 259 268 276 283 287 286 285 281 279 277 265 258 263 242 201 205 220 175 140 98 111 240 225 195 196 216 241 210 171 178 257 213 197 216 209 184 129 109 203 222 246 260 227 227 255 228 231 250 242 244 221 176 160 164 168 170 164 153 155 21 52 313 272 290 340 326 323 322 290 269 250 192 186 214 238 248 218 198 207 250 264 256 261
263 264 268 270 273 276 275 277 279 274 270 268 265 264 262 271 273 238 196 216 249 182 139 113 187 224 237 200 199 227 248 195 178 191 263 212 192 223 206 180 159 184 219 223 241 252 237 256 270 253 255 260 247 243 213 193 182 169 159 151 172 134 119 164 180 232 269 295 327 330 328 307 271 245 178 168 221 225 229 260 254 213 193 220 249 264 277
275 282 285 283 281 277 272 272 271 269 269 267 260 256 257 265 270 234 184 177 242 189 167 235 218 224 262 208 205 252 228 190 198 213 240 209 191 197 196 181 176 217 219 206 215 243 251 271 276 264 275 268 229 179 176 181 192 188 174 147 132 137 133 204 200 199 267 305 353 345 276 234 260 282 231 220 264 200 213 262 272 248 222 234 256 267 270
299 300 296 292 286 279 275 273 271 270 272 272 267 260 257 260 259 232 193 186 234 196 186 249 236 231 248 220 187 163 150 154 187 205 194 199 194 193 198 192 192 208 198 189 197 223 269 304 313 294 332 15 20 25 97 39 26 189 186 140 131 147 150 198 190 186 274 329 37 281 273 281 297 322 26 73 59 96 240 288 280 263 234 225 246 259 262
290 291 287 284 280 277 277 278 279 282 284 286 283 271 264 262 251 233 217 228 255 216 205 274 266 226 224 217 172 136 136 154 177 193 183 229 211 200 202 204 201 194 177 173 75 53 339 0 15 343 333 4 5 345 10 37 42 58 34 351 146 141 138 193 246 211 221 261 239 262 315 318 317 346 19 354 44 99 133 288 284 277 253 233 242 260 269
293 296 293 289 288 286 284 282 283 288 291 291 289 281 273 266 252 237 228 228 277 249 217 239 265 225 203 199 180 151 74 235 216 239 245 227 215 209 208 193 181 178 170 159 50 62 53 24 29 345 329 346 319 304 1 69 34 34 28 44 119 120 139 173 204 254 107 71 299 319 347 315 282 278 287 272 222 204 149 124 288 283 275 266 250 255 279
323 325 324 325 322 314 308 302 296 293 289 285 283 280 276 271 260 243 230 217 226 285 239 235 252 223 168 177 191 197 214 194 174 337 326 283 221 195 190 178 169 166 154 95 58 73 62 80 156 204 259 224 223 279 305 257 350 15 24 49 74 53 43 109 138 290 23 92 257 271 268 263 256 260 270 252 210 207 100 31 279 274 320 322 296 275 294
14 7 4 358 352 348 344 337 330 318 300 291 286 279 275 274 266 246 228 220 229 263 258 250 240 211 166 146 195 212 206 176 161 175 312 269 201 169 169 171 166 163 151 58 32 66 79 122 145 200 258 231 171 272 284 209 305 325 353 31 47 33 24 71 187 257 224 137 224 249 249 259 275 295 275 248 196 143 21 339 290 312 335 333 325 306 306
18 9 4 2 357 356 356 350 347 340 322 309 300 288 278 272 266 247 229 226 233 255 254 242 228 219 214 220 221 203 189 171 151 144 101 283 210 176 171 170 157 145 170 132 53 74 104 213 187 182 256 269 67 310 264 249 266 258 186 104 71 54 49 136 187 218 205 195 236 267 258 258 277 291 279 242 256 352 6 318 313 324 327 326 324 317 313
17 11 6 5 1 357 358 356 353 351 343 333 319 304 294 277 262 244 227 225 232 249 252 245 239 238 245 250 233 201 195 198 189 143 85 0 204 152 143 159 165 149 107 108 112 120 141 266 234 148 226 292 320 120 248 253 218 177 144 143 215 180 156 187 184 204 207 180 200 282 288 266 259 266 266 312 347 335 319 311 316 320 319 320 321 319 317
15 11 7 5 3 1 2 4 5 6 5 359 351 331 313 290 263 245 228 223 234 255 259 253 248 246 252 248 232 215 212 223 225 186 151 168 169 144 104 14 200 161 80 78 162 200 180 254 271 173 194 264 252 162 271 281 249 185 173 198 215 184 177 233 212 185 163 144 212 310 288 252 213 219 16 110 297 308 311 312 315 317 317 318 319 319 320
12 12 9 8 10 11 14 20 24 25 26 22 16 7 350 326 281 245 229 229 243 252 247 250 249 248 250 237 223 230 232 240 248 231 214 187 172 157 85 306 197 181 165 161 180 238 205 215 258 243 210 247 262 219 235 291 304 269 191 177 223 195 183 239 255 207 147 139 194 228 274 286 295 298 287 288 297 308 314 315 313 316 320 321 320 319 321
18 19 19 20 24 28 33 39 37 32 33 29 24 27 34 40 57 100 197 239 250 241 232 264 259 245 249 229 211 234 248 241 242 238 228 177 183 189 228 274 178 195 213 174 163 265 237 208 205 244 246 253 263 244 193 190 300 297 245 116 261 220 198 190 229 227 225 235 240 260 289 305 314 309 299 304 313 320 324 321 316 317 322 324 322 320 322
28 28 31 34 38 40 41 43 41 37 38 36 37 44 50 54 62 67 62 67 119 91 70 55 69 86 55 75 189 226 251 239 237 245 252 206 195 211 238 250 210 220 220 207 221 229 195 195 182 169 238 227 203 268 294 238 261 284 299 288 274 249 215 132 188 264 281 273 270 282 300 311 317 318 315 318 324 329 330 327 323 322 323 323 323 323 323
34 37 40 40 39 40 41 42 42 42 45 50 50 50 50 50 50 44 35 38 72 74 72 70 62 57 72 91 98 116 137 238 261 277 278 251 205 220 247 247 237 232 226 233 243 238 214 228 169 134 240 231 169 180 290 274 246 224 337 303 299 345 26 337 257 282 321 298 290 304 313 313 316 320 325 328 330 331 331 328 325 324 325 326 326 326 326
38 39 42 40 39 38 38 40 41 41 47 54 50 44 42 39 36 34 30 22 19 67 101 89 42 44 98 102 74 83 74 24 350 347 324 286 267 275 273 263 251 247 251 259 259 253 245 236 162 148 228 241 172 211 251 269 260 274 0 306 294 338 358 328 274 272 290 279 287 303 310 311 315 324 329 330 330 329 329 328 327 327 328 328 327 327 327
38 37 38 38 40 41 37 35 36 39 47 53 49 43 39 34 34 34 30 23 26 66 92 105 73 70 106 92 59 68 51 21 355 341 341 314 285 281 279 277 274 267 267 271 268 257 238 208 132 148 203 220 233 209 222 263 280 311 298 271 275 306 318 309 299 303 290 284 303 318 320 316 321 327 327 327 328 327 326 327 327 327 328 327 327 328 328
36 34 33 35 42 46 39 31 26 28 36 41 42 40 36 32 35 36 33 33 35 26 55 119 114 78 98 105 70 59 35 17 358 337 333 320 309 306 296 287 286 283 277 273 267 249 217 159 136 201 215 245 286 194 220 267 293 47 286 277 300 333 324 329 354 333 310 303 318 327 326 312 315 321 322 323 325 324 324 325 326 326 327 327 327 327 328
33 31 32 35 40 45 42 31 21 17 17 15 16 23 27 27 29 31 33 37 36 30 93 130 121 80 88 114 79 48 22 359 349 338 331 325 317 314 307 299 295 288 278 270 252 206 166 155 204 221 227 262 301 279 277 317 35 38 282 303 346 355 339 342 342 309 297 306 316 322 319 302 306 314 318 321 325 325 324 324 324 324 326 327 327 327 328
36 34 35 36 39 43 43 37 28 26 24 13 4 5 16 21 23 26 28 32 34 48 94 117 112 65 68 92 38 5 357 348 340 332 330 326 318 311 307 299 288 280 268 249 224 199 201 219 230 244 251 223 223 269 296 53 48 257 282 359 4 355 346 344 335 310 301 311 321 325 319 307 307 313 317 322 326 326 324 324 325 326 328 329 329 328 328
39 38 37 35 37 40 40 35 28 23 21 15 7 5 5 9 16 18 18 25 33 35 63 102 104 67 59 55 21 0 359 352 341 334 332 328 321 316 310 297 286 278 259 240 230 230 246 248 239 224 231 225 183 163 136 103 221 252 333 6 360 350 345 344 338 325 316 319 324 323 315 309 312 316 319 322 325 326 324 325 327 328 329 330 330 329 330
33 33 31 28 28 29 27 24 17 9 14 16 14 16 20 2 3 5 5 16 29 26 29 73 89 102 93 48 26 15 5 353 343 337 336 331 326 323 313 300 293 278 251 235 230 231 232 240 221 187 194 193 99 133 120 89 250 290 342 354 349 343 341 340 336 332 327 326 327 323 318 317 320 322 322 325 328 329 328 327 329 330 330 330 330 330 330
27 25 20 17 16 14 11 8 360 356 6 13 13 17 20 2 359 6 9 14 22 20 24 63 74 71 36 14 14 11 3 355 345 338 336 332 327 326 320 310 302 275 238 214 214 235 240 189 221 203 152 92 87 100 89 103 206 307 340 343 339 338 340 337 334 333 332 332 332 328 324 324 326 324 322 324 328 331 331 330 331 332 331 330 331 331 331
21 16 12 8 3 1 360 357 353 352 0 5 3 6 8 2 2 10 13 15 21 23 29 57 76 44 352 353 353 354 356 352 342 334 335 331 322 324 324 316 312 271 225 213 209 229 200 204 206 124 97 118 96 78 79 191 249 322 338 337 335 337 338 334 332 332 332 333 333 327 319 320 323 325 326 327 330 332 332 332 332 332 331 330 330 331 332
19 14 9 1 356 353 350 350 351 350 351 353 350 350 356 357 358 5 10 15 25 34 40 49 63 67 327 345 351 345 348 346 337 333 335 325 317 326 329 318 332 356 184 185 160 82 229 224 159 118 105 58 65 77 244 279 318 337 337 335 338 339 337 334 335 333 331 331 331 325 320 319 322 325 328 330 332 334 334 333 332 331 330 329 328 329 330
19 14 6 359 355 349 342 345 353 352 347 342 339 339 344 346 344 353 6 16 24 38 41 41 53 70 357 345 328 329 340 340 335 330 326 311 311 330 336 324 352 41 129 159 154 63 88 114 129 134 76 353 52 142 269 308 331 339 338 337 340 341 338 335 334 332 330 330 329 328 328 328 326 327 330 332 333 335 334 333 332 330 328 326 326 327 327
9 6 2 359 354 347 339 338 346 348 344 337 330 328 325 327 337 351 14 26 35 50 61 55 72 94 51 321 296 322 336 337 330 321 311 292 300 329 343 10 49 74 110 112 39 57 99 131 145 101 19 229 181 112 3 346 337 336 336 336 338 340 337 333 331 329 329 330 331 331 333 332 331 331 332 331 332 332 332 331 330 329 326 324 324 325 325
354 353 352 351 348 344 338 331 335 338 337 328 323 323 324 330 355 33 49 46 55 62 63 70 90 91 1 272 298 325 333 331 326 324 315 308 322 324 328 52 69 170 23 12 38 109 125 136 132 124 250 221 155 31 9 356 344 337 335 335 337 339 338 336 335 332 331 333 337 338 337 336 335 334 333 330 330 331 330 329 329 327 324 323 322 323 322
341 339 340 342 344 343 333 326 327 327 325 324 323 326 341 6 48 75 54 55 71 61 50 57 73 40 344 284 313 333 335 324 325 334 343 351 345 338 16 41 33 103 0 339 3 121 81 48 75 92 264 288 33 14 355 347 344 340 337 337 339 340 339 339 340 338 336 336 337 337 336 334 333 333 332 331 330 330 330 330 328 326 324 323 322 321 320
333 332 333 335 336 333 325 325 326 326 326 332 336 342 13 24 41 33 20 38 62 44 34 40 47 23 355 317 319 336 337 330 333 340 346 356 352 336 346 9 23 34 16 354 114 72 24 341 26 27 284 350 12 359 346 343 344 344 343 342 341 341 341 340 340 340 337 333 332 331 331 329 326 326 327 327 326 327 328 328 327 326 325 323 322 321 319
334 333 332 331 330 330 330 331 336 342 348 2 30 54 36 38 40 17 6 26 45 36 26 19 8 359 353 338 322 327 334 335 328 295 293 316 318 305 335 5 25 19 13 267 320 31 69 205 21 49 114 344 349 347 345 345 346 346 346 345 342 341 340 339 339 338 336 333 331 331 329 326 323 321 322 322 322 323 325 326 326 325 323 321 321 320 317
341 338 335 333 335 341 346 352 1 8 17 38 47 41 34 36 29 19 24 34 16 359 3 360 353 348 343 333 315 306 319 326 312 274 277 300 311 319 325 330 0 23 189 249 312 28 99 88 357 179 323 343 344 344 345 347 346 346 345 343 341 340 340 339 338 337 336 334 331 329 327 325 322 319 319 320 320 321 323 325 325 323 322 321 320 317 314
347 344 343 348 359 6 13 20 21 20 27 41 34 19 16 22 16 19 33 45 2 341 349 352 345 333 327 324 316 303 305 314 309 279 260 315 331 344 2 337 6 36 199 255 327 44 72 28 345 280 332 342 344 344 346 346 345 343 342 341 340 340 338 337 336 336 334 332 329 328 326 324 320 317 319 321 322 323 324 326 325 324 322 321 319 315 314
352 352 357 13 25 28 34 32 24 25 45 51 33 13 359 7 13 23 18 12 1 350 343 338 334 329 325 321 317 305 297 304 308 287 265 319 333 7 54 36 15 14 242 309 42 63 54 130 141 327 336 341 343 344 345 346 343 341 340 339 339 337 335 334 334 334 332 330 328 327 326 323 319 318 319 322 323 325 326 326 326 325 324 322 319 316 319
355 0 10 27 27 24 24 13 16 27 49 44 38 63 14 346 337 268 308 332 338 339 334 329 329 325 317 316 319 310 291 302 323 313 325 337 343 36 65 319 267 282 321 0 54 69 235 213 324 337 339 341 342 343 344 343 341 339 337 336 335 334 333 334 335 334 331 330 330 329 327 325 321 319 321 323 325 327 327 327 327 327 326 324 321 321 325
357 6 22 43 19 13 12 4 22 36 52 1 32 142 169 275 276 241 274 307 311 314 319 321 319 309 302 311 318 305 292 333 342 319 339 356 8 49 235 252 265 7 26 21 11 9 350 326 336 339 339 338 339 340 341 340 338 337 334 332 333 333 334 335 335 333 331 331 330 329 327 324 322 322 323 325 327 328 328 328 328 328 327 325 323 325 328
3 16 44 78 24 13 25 53 15 21 55 50 30 118 216 284 288 276 289 306 312 314 318 321 316 306 305 313 313 291 316 341 351 335 11 30 43 272 287 291 0 27 37 31 14 12 344 318 329 334 334 334 335 338 338 337 336 336 334 332 332 334 334 333 333 332 331 331 329 328 326 324 324 325 326 326 327 329 330 329 329 330 328 326 325 328 330
10 25 47 72 46 18 32 51 60 84 91 60 28 9 339 324 313 301 304 313 317 317 320 322 317 304 300 307 302 307 342 11 25 335 359 46 201 286 340 30 52 33 50 28 358 328 304 321 328 330 331 333 335 336 335 334 335 336 335 334 333 333 332 331 331 332 332 331 330 328 327 327 327 328 328 327 328 329 330 330 331 330 328 326 327 330 331
30 34 42 67 113 31 26 83 135 109 72 31 6 358 348 334 325 318 316 319 321 322 323 326 325 313 309 325 320 318 356 20 24 340 358 65 321 329 5 18 350 339 59 21 338 312 314 323 325 327 330 334 334 332 332 334 336 336 335 333 331 331 330 330 330 331 332 332 330 329 330 330 330 330 329 328 328 329 331 331 331 330 329 330 331 329 328
57 60 62 83 110 68 51 131 149 105 41 14 357 351 345 338 333 330 326 325 326 324 320 321 323 317 323 349 11 11 10 15 5 332 14 28 21 14 71 25 350 337 332 330 324 317 317 322 325 328 332 333 333 332 333 335 335 334 331 330 330 330 330 330 330 331 332 332 331 331 332 332 331 331 331 330 329 329 331 333 333 332 331 330 329 327 326
63 64 60 63 61 31 30 92 143 27 3 3 1 353 347 344 344 341 337 335 334 330 326 329 337 329 332 3 31 39 2 352 0 42 34 31 30 20 8 359 341 317 313 319 319 317 319 324 330 332 331 332 332 333 333 332 332 331 329 329 330 331 331 330 330 331 333 334 333 332 332 333 333 333 332 330 329 330 332 335 335 332 328 327 328 328 329
62 65 62 58 50 32 38 74 95 349 346 355 357 353 350 349 347 344 341 341 344 348 350 347 342 342 13 35 41 353 307 327 24 54 44 29 58 53 0 311 298 306 313 316 318 319 323 329 333 332 331 332 332 331 330 330 330 330 329 330 332 332 331 332 333 334 335 334 333 333 334 335 335 335 333 332 333 335 334 332 330 328 328 329 331 332 333
68 83 76 59 50 54 72 83 80 38 8 4 1 357 353 349 344 342 343 348 358 10 14 3 4 37 59 22 326 306 322 2 30 37 14 335 31 25 313 297 308 318 320 320 322 325 328 330 331 330 330 329 328 329 329 329 328 329 332 334 334 333 334 335 336 336 336 335 335 335 336 337 337 338 339 339 338 337 333 329 328 329 330 332 333 334 336